| time (UTC) | temp F | wind direction | speed MPH | gust MPH | rain 1hr in | rain 24hr in | rain mn in | humidity % | barometer mb |
| 20260504050445 | 53 | 209 | 5.0 | 7.0 | 0.00 | 0.00 | 0.00 | 65 | |
| 20260504045942 | 53 | 50 | 3.0 | 5.0 | 0.00 | 0.00 | 0.00 | 64 | |
| 20260504045438 | 53 | 239 | 5.0 | 7.0 | 0.00 | 0.00 | 0.00 | 65 | |
| 20260504044934 | 53 | 247 | 2.0 | 8.0 | 0.00 | 0.00 | 0.00 | 64 | |
| 20260504044432 | 53 | 287 | 3.0 | 5.0 | 0.00 | 0.00 | 0.00 | 64 | |
| 20260504043929 | 53 | 58 | 3.0 | 13.0 | 0.00 | 0.00 | 0.00 | 64 | |
| 20260504043426 | 53 | 351 | 4.0 | 6.0 | 0.00 | 0.00 | 0.00 | 64 | |
| 20260504042923 | 53 | 313 | 3.0 | 5.0 | 0.00 | 0.00 | 0.00 | 63 | |
| 20260504042420 | 54 | 208 | 2.0 | 13.0 | 0.00 | 0.00 | 0.00 | 63 | |
| 20260504041916 | 54 | 12 | 2.0 | 6.0 | 0.00 | 0.00 | 0.00 | 63 | |
| 20260504041412 | 54 | 72 | 3.0 | 8.0 | 0.00 | 0.00 | 0.00 | 62 | |
| 20260504040908 | 54 | 205 | 1.0 | 6.0 | 0.00 | 0.00 | 0.00 | 62 | |
| 20260504040407 | 54 | 131 | 3.0 | 5.0 | 0.00 | 0.00 | 0.00 | 61 | |
| 20260504035902 | 54 | 61 | 1.0 | 7.0 | 0.00 | 0.04 | 0.04 | 61 | |
| 20260504035400 | 54 | 59 | 1.0 | 7.0 | 0.00 | 0.04 | 0.04 | 61 | |
| 20260504034856 | 54 | 359 | 3.0 | 6.0 | 0.00 | 0.04 | 0.04 | 61 | |
| 20260504034354 | 54 | 70 | 4.0 | 6.0 | 0.00 | 0.04 | 0.04 | 60 | |
| 20260504033850 | 54 | 161 | 3.0 | 7.0 | 0.00 | 0.04 | 0.04 | 60 | |
| 20260504033349 | 54 | 349 | 3.0 | 7.0 | 0.00 | 0.04 | 0.04 | 60 | |
| 20260504032845 | 54 | 158 | 3.0 | 8.0 | 0.00 | 0.04 | 0.04 | 60 | |
| 20260504032342 | 54 | 44 | 1.0 | 9.0 | 0.00 | 0.04 | 0.04 | 60 | |
| 20260504031839 | 54 | 343 | 5.0 | 9.0 | 0.00 | 0.04 | 0.04 | 60 | |
| 20260504031336 | 54 | 94 | 2.0 | 10.0 | 0.00 | 0.04 | 0.04 | 60 | |
| 20260504030832 | 54 | 194 | 3.0 | 7.0 | 0.00 | 0.04 | 0.04 | 60 | |
| 20260504030330 | 54 | 69 | 2.0 | 7.0 | 0.00 | 0.04 | 0.04 | 60 | |
| 20260504025826 | 54 | 10 | 2.0 | 6.0 | 0.00 | 0.04 | 0.04 | 59 | |
| 20260504025323 | 54 | 69 | 2.0 | 7.0 | 0.00 | 0.04 | 0.04 | 60 | |
| 20260504024820 | 53 | 40 | 1.0 | 2.0 | 0.00 | 0.04 | 0.04 | 61 | |
| 20260504024316 | 53 | 79 | 2.0 | 7.0 | 0.00 | 0.04 | 0.04 | 60 | |
| 20260504023813 | 53 | 40 | 1.0 | 3.0 | 0.00 | 0.04 | 0.04 | 60 | |
| 20260504023309 | 53 | 164 | 3.0 | 8.0 | 0.00 | 0.04 | 0.04 | 61 | |
| 20260504022805 | 53 | 30 | 2.0 | 6.0 | 0.00 | 0.04 | 0.04 | 62 | |
| 20260504022304 | 53 | 65 | 2.0 | 5.0 | 0.00 | 0.04 | 0.04 | 61 | |
| 20260504021758 | 53 | 138 | 1.0 | 6.0 | 0.00 | 0.04 | 0.04 | 62 | |
| 20260504021256 | 53 | 193 | 3.0 | 3.0 | 0.00 | 0.04 | 0.04 | 62 | |
| 20260504020753 | 53 | 135 | 2.0 | 5.0 | 0.00 | 0.04 | 0.04 | 62 | |
| 20260504020249 | 53 | 352 | 3.0 | 5.0 | 0.00 | 0.04 | 0.04 | 62 | |
| 20260504015745 | 53 | 153 | 1.0 | 3.0 | 0.00 | 0.04 | 0.04 | 63 | |
| 20260504015242 | 53 | 255 | 1.0 | 3.0 | 0.00 | 0.04 | 0.04 | 64 | |
| 20260504014738 | 53 | 358 | 0.0 | 6.0 | 0.00 | 0.04 | 0.04 | 63 | |
| 20260504014234 | 52 | 41 | 3.0 | 3.0 | 0.00 | 0.04 | 0.04 | 64 | |
| 20260504013732 | 52 | 85 | 1.0 | 6.0 | 0.00 | 0.04 | 0.04 | 65 | |
| 20260504013230 | 52 | 218 | 2.0 | 3.0 | 0.00 | 0.04 | 0.04 | 65 | |
| 20260504012726 | 52 | 261 | 1.0 | 3.0 | 0.00 | 0.04 | 0.04 | 66 | |
| 20260504012224 | 52 | 331 | 0.0 | 5.0 | 0.00 | 0.04 | 0.04 | 67 | |
| 20260504011721 | 52 | 291 | 0.0 | 7.0 | 0.00 | 0.04 | 0.04 | 68 | |
| 20260504011218 | 52 | 290 | 0.0 | 5.0 | 0.00 | 0.04 | 0.04 | 70 | |
| 20260504010714 | 51 | 53 | 1.0 | 2.0 | 0.00 | 0.04 | 0.04 | 72 | |
| 20260504010210 | 51 | 62 | 0.0 | 2.0 | 0.00 | 0.04 | 0.04 | 74 | |
| 20260504005706 | 51 | 331 | 2.0 | 3.0 | 0.00 | 0.04 | 0.04 | 76 | |
| 20260504005203 | 51 | 281 | 0.0 | 1.0 | 0.00 | 0.04 | 0.04 | 78 | |
| 20260504004702 | 51 | 212 | 2.0 | 3.0 | 0.00 | 0.04 | 0.04 | 78 | |
| 20260504004158 | 51 | 327 | 0.0 | 3.0 | 0.00 | 0.04 | 0.04 | 78 | |
| 20260504003654 | 51 | 307 | 2.0 | 3.0 | 0.00 | 0.04 | 0.04 | 78 | |
| 20260504003151 | 51 | 338 | 1.0 | 2.0 | 0.00 | 0.04 | 0.04 | 79 | |
| 20260504002648 | 51 | 346 | 0.0 | 2.0 | 0.00 | 0.04 | 0.04 | 80 | |
| 20260504002145 | 50 | 344 | 0.0 | 1.0 | 0.00 | 0.04 | 0.04 | 81 | |
| 20260504001643 | 50 | 318 | 0.0 | 0.0 | 0.00 | 0.04 | 0.04 | 82 | |
| 20260504001139 | 50 | 334 | 0.0 | 0.0 | 0.00 | 0.04 | 0.04 | 83 | |
| 20260504000636 | 50 | 13 | 0.0 | 0.0 | 0.00 | 0.04 | 0.04 | 83 | |
| 20260504000134 | 50 | 354 | 0.0 | 0.0 | 0.00 | 0.04 | 0.04 | 83 | |
| 20260503235632 | 50 | 3 | 0.0 | 1.0 | 0.00 | 0.04 | 0.04 | 83 | |
| 20260503235128 | 51 | 0 | 0.0 | 0.0 | 0.00 | 0.04 | 0.04 | 83 | |
| 20260503234626 | 50 | 5 | 0.0 | 1.0 | 0.00 | 0.04 | 0.04 | 83 | |
| 20260503234124 | 50 | 17 | 0.0 | 2.0 | 0.00 | 0.04 | 0.04 | 83 | |
| 20260503233621 | 50 | 357 | 0.0 | 1.0 | 0.00 | 0.04 | 0.04 | 83 | |
| 20260503233116 | 51 | 15 | 0.0 | 1.0 | 0.00 | 0.04 | 0.04 | 83 | |
| 20260503232613 | 51 | 355 | 0.0 | 1.0 | 0.00 | 0.04 | 0.04 | 83 | |
| 20260503232111 | 51 | 15 | 0.0 | 1.0 | 0.00 | 0.04 | 0.04 | 84 | |
| 20260503231609 | 51 | 321 | 0.0 | 3.0 | 0.00 | 0.04 | 0.04 | 84 | |
| 20260503231105 | 50 | 19 | 0.0 | 2.0 | 0.00 | 0.04 | 0.04 | 85 | |
| 20260503230602 | 50 | 314 | 0.0 | 2.0 | 0.00 | 0.04 | 0.04 | 85 | |
| 20260503230059 | 50 | 227 | 1.0 | 2.0 | 0.00 | 0.04 | 0.04 | 86 | |
| 20260503225556 | 50 | 19 | 0.0 | 1.0 | 0.00 | 0.04 | 0.04 | 86 | |
| 20260503225051 | 50 | 18 | 1.0 | 3.0 | 0.00 | 0.04 | 0.04 | 87 | |
| 20260503224549 | 50 | 104 | 0.0 | 2.0 | 0.00 | 0.04 | 0.04 | 87 | |
| 20260503224047 | 50 | 41 | 2.0 | 3.0 | 0.00 | 0.04 | 0.04 | 87 | |
| 20260503223544 | 50 | 75 | 1.0 | 3.0 | 0.00 | 0.04 | 0.04 | 87 | |
| 20260503223039 | 50 | 27 | 0.0 | 1.0 | 0.00 | 0.04 | 0.04 | 88 | |
| 20260503222538 | 50 | 4 | 1.0 | 2.0 | 0.00 | 0.04 | 0.04 | 87 | |
| 20260503222036 | 50 | 74 | 2.0 | 5.0 | 0.00 | 0.04 | 0.04 | 87 | |
| 20260503221534 | 50 | 64 | 3.0 | 3.0 | 0.00 | 0.04 | 0.04 | 87 | |
| 20260503221031 | 50 | 65 | 2.0 | 5.0 | 0.00 | 0.04 | 0.04 | 87 | |
| 20260503220527 | 50 | 282 | 0.0 | 2.0 | 0.00 | 0.04 | 0.04 | 88 | |
| 20260503220024 | 50 | 58 | 2.0 | 5.0 | 0.00 | 0.04 | 0.04 | 87 | |
| 20260503215521 | 49 | 24 | 1.0 | 2.0 | 0.05 | 0.04 | 0.04 | 87 | |
| 20260503215018 | 49 | 19 | 2.0 | 3.0 | 0.12 | 0.04 | 0.04 | 86 | |
| 20260503214516 | 50 | 51 | 1.0 | 8.0 | 0.07 | 0.03 | 0.03 | 85 | |
| 20260503214012 | 50 | 63 | 1.0 | 3.0 | 0.00 | 0.02 | 0.02 | 85 | |
| 20260503213511 | 50 | 310 | 3.0 | 6.0 | 0.05 | 0.02 | 0.02 | 85 | |
| 20260503213007 | 50 | 6 | 3.0 | 7.0 | 0.05 | 0.02 | 0.02 | 84 | |
| 20260503212505 | 50 | 52 | 6.0 | 8.0 | 0.00 | 0.01 | 0.01 | 83 | |
| 20260503212002 | 51 | 73 | 4.0 | 13.0 | 0.00 | 0.01 | 0.01 | 80 | |
| 20260503211459 | 52 | 142 | 9.0 | 11.0 | 0.00 | 0.01 | 0.01 | 78 | |
| 20260503210954 | 52 | 359 | 2.0 | 6.0 | 0.00 | 0.01 | 0.01 | 78 | |
| 20260503210451 | 52 | 340 | 3.0 | 8.0 | 0.00 | 0.01 | 0.01 | 79 | |
| 20260503205946 | 51 | 10 | 1.0 | 14.0 | 0.07 | 0.01 | 0.01 | 80 | |
| 20260503205443 | 51 | 22 | 4.0 | 8.0 | 0.07 | 0.01 | 0.01 | 81 | |
| 20260503204939 | 51 | 92 | 7.0 | 9.0 | 0.00 | 0.00 | 0.00 | 81 | |
| 20260503204436 | 51 | 53 | 3.0 | 7.0 | 0.00 | 0.00 | 0.00 | 81 | |
| 20260503203933 | 52 | 77 | 3.0 | 13.0 | 0.00 | 0.00 | 0.00 | 79 | |
| 20260503203431 | 52 | 76 | 6.0 | 9.0 | 0.00 | 0.00 | 0.00 | 77 | |
| 20260503202927 | 54 | 75 | 5.0 | 11.0 | 0.00 | 0.00 | 0.00 | 73 | |
| 20260503202426 | 55 | 62 | 5.0 | 18.0 | 0.00 | 0.00 | 0.00 | 62 | |
| 20260503201924 | 57 | 288 | 8.0 | 11.0 | 0.00 | 0.00 | 0.00 | 54 | |
| 20260503201421 | 57 | 117 | 4.0 | 8.0 | 0.00 | 0.00 | 0.00 | 52 | |
| 20260503200918 | 57 | 33 | 5.0 | 11.0 | 0.00 | 0.00 | 0.00 | 52 | |
| 20260503200414 | 57 | 351 | 7.0 | 9.0 | 0.00 | 0.00 | 0.00 | 51 | |
| 20260503195911 | 56 | 251 | 4.0 | 20.0 | 0.00 | 0.00 | 0.00 | 54 | |
| 20260503195409 | 56 | 64 | 7.0 | 9.0 | 0.00 | 0.00 | 0.00 | 56 | |
| 20260503194905 | 58 | 149 | 9.0 | 14.0 | 0.00 | 0.00 | 0.00 | 51 | |
| 20260503194402 | 59 | 49 | 1.0 | 5.0 | 0.00 | 0.00 | 0.00 | 50 | |
| 20260503193858 | 58 | 341 | 2.0 | 3.0 | 0.00 | 0.00 | 0.00 | 52 | |
| 20260503193353 | 57 | 190 | 1.0 | 6.0 | 0.00 | 0.00 | 0.00 | 54 | |
| 20260503192849 | 57 | 143 | 3.0 | 9.0 | 0.00 | 0.00 | 0.00 | 54 | |
| 20260503192345 | 57 | 113 | 0.0 | 5.0 | 0.00 | 0.00 | 0.00 | 53 | |
| 20260503191842 | 58 | 27 | 4.0 | 10.0 | 0.00 | 0.00 | 0.00 | 49 | |
| 20260503191339 | 59 | 56 | 5.0 | 7.0 | 0.00 | 0.00 | 0.00 | 44 | |
| 20260503190835 | 59 | 143 | 4.0 | 13.0 | 0.00 | 0.00 | 0.00 | 44 | |
| 20260503190332 | 59 | 117 | 3.0 | 7.0 | 0.00 | 0.00 | 0.00 | 42 | |
| 20260503185829 | 59 | 206 | 3.0 | 6.0 | 0.00 | 0.00 | 0.00 | 42 | |
| 20260503185325 | 59 | 1 | 2.0 | 5.0 | 0.00 | 0.00 | 0.00 | 41 | |
| 20260503184820 | 61 | 156 | 1.0 | 8.0 | 0.00 | 0.00 | 0.00 | 42 | |
| 20260503184316 | 61 | 56 | 3.0 | 6.0 | 0.00 | 0.00 | 0.00 | 40 | |
| 20260503183812 | 61 | 105 | 1.0 | 5.0 | 0.00 | 0.00 | 0.00 | 40 | |
| 20260503183309 | 61 | 256 | 5.0 | 8.0 | 0.00 | 0.00 | 0.00 | 39 | |
| 20260503182807 | 61 | 56 | 1.0 | 9.0 | 0.00 | 0.00 | 0.00 | 40 | |
| 20260503182306 | 61 | 8 | 2.0 | 6.0 | 0.00 | 0.00 | 0.00 | 41 | |
| 20260503181802 | 62 | 27 | 1.0 | 5.0 | 0.00 | 0.00 | 0.00 | 41 | |
| 20260503181259 | 61 | 217 | 3.0 | 8.0 | 0.00 | 0.00 | 0.00 | 40 | |
| 20260503180756 | 61 | 38 | 2.0 | 8.0 | 0.00 | 0.00 | 0.00 | 40 | |
| 20260503180254 | 62 | 152 | 3.0 | 6.0 | 0.00 | 0.00 | 0.00 | 41 | |
| 20260503175750 | 61 | 172 | 5.0 | 9.0 | 0.00 | 0.00 | 0.00 | 40 | |
| 20260503175248 | 62 | 223 | 1.0 | 9.0 | 0.00 | 0.00 | 0.00 | 40 | |
| 20260503174743 | 62 | 347 | 5.0 | 8.0 | 0.00 | 0.00 | 0.00 | 39 | |
| 20260503174242 | 61 | 273 | 2.0 | 7.0 | 0.00 | 0.00 | 0.00 | 39 | |
| 20260503173737 | 61 | 348 | 2.0 | 8.0 | 0.00 | 0.00 | 0.00 | 41 | |
| 20260503173233 | 60 | 14 | 1.0 | 5.0 | 0.00 | 0.00 | 0.00 | 40 | |
| 20260503172730 | 61 | 215 | 6.0 | 10.0 | 0.00 | 0.00 | 0.00 | 40 | |
| 20260503172227 | 60 | 218 | 3.0 | 5.0 | 0.00 | 0.00 | 0.00 | 39 | |
| 20260503171723 | 59 | 359 | 2.0 | 6.0 | 0.00 | 0.00 | 0.00 | 41 | |
| 20260503171221 | 59 | 339 | 1.0 | 5.0 | 0.00 | 0.00 | 0.00 | 41 | |
| 20260503170718 | 58 | 331 | 0.0 | 6.0 | 0.00 | 0.00 | 0.00 | 41 | |
| 20260503170215 | 58 | 341 | 2.0 | 9.0 | 0.00 | 0.00 | 0.00 | 41 | |
| 20260503160136 | 55 | 334 | 1.0 | 3.0 | 0.00 | 0.00 | 0.00 | 43 | |
| 20260503150606 | 54 | 181 | 0.0 | 2.0 | 0.00 | 0.00 | 0.00 | 42 | |
| 20260503130955 | 45 | 51 | 5.0 | 6.0 | 0.00 | 0.00 | 0.00 | 58 | |
| 20260503130453 | 45 | 279 | 2.0 | 2.0 | 0.00 | 0.00 | 0.00 | 60 | |
| 20260503110338 | 34 | 150 | 1.0 | 5.0 | 0.00 | 0.00 | 0.00 | 79 | |
| 20260503090224 | 34 | 73 | 1.0 | 2.0 | 0.00 | 0.00 | 0.00 | 69 | |
| 20260503081156 | 35 | 15 | 0.0 | 1.0 | 0.00 | 0.00 | 0.00 | 65 | |
| 20260503080652 | 35 | 28 | 1.0 | 2.0 | 0.00 | 0.00 | 0.00 | 65 | |
| 20260503080149 | 34 | 39 | 0.0 | 2.0 | 0.00 | 0.00 | 0.00 | 65 | |
| 20260503072626 | 34 | 6 | 0.0 | 1.0 | 0.00 | 0.00 | 0.00 | 64 | |
| 20260503072123 | 34 | 11 | 0.0 | 1.0 | 0.00 | 0.00 | 0.00 | 65 | |
| 20260503071620 | 34 | 28 | 0.0 | 1.0 | 0.00 | 0.00 | 0.00 | 65 | |
| 20260503071116 | 34 | 45 | 1.0 | 2.0 | 0.00 | 0.00 | 0.00 | 65 | |
| 20260503070614 | 34 | 30 | 1.0 | 1.0 | 0.00 | 0.00 | 0.00 | 65 | |
| 20260503070112 | 34 | 50 | 1.0 | 1.0 | 0.00 | 0.00 | 0.00 | 65 |